Back to catalog

STARLINK-35990

AliveCommunicationsVLEO
NORAD 66792·PAYLOAD·🇺🇸 United States

Launched Dec 1, 2025 from Cape Canaveral Space Force Station

Loading…

Next Passes (next 24 hours)

TLE

FreshSource: CelesTrak SupGP

Epoch: Sep 14, 2026, 14:28 UTC

1 66792C 25278B   26257.60326389  .00040335  00000+0  14612-2 0  2570
2 66792  42.9990 127.2526 0001501 261.5018  99.2284 15.27550982    19

Track STARLINK-35990 in real time with AllMySat

Download on the App Store